Terminal Aerodrome Forecast
Issued by NWS

Home | Current Version | Previous Version | Text Only | Print | Product List | Glossary On
Versions: 1 2 3 4 5 6 7 8 9 10 11 12 13 14
000
FTUS46 KMTR 231120
TAFSTS
TAF
KSTS 231120Z 2312/2412 16005KT P6SM OVC002
      TEMPO 2312/2316 1/4SM FG VV002
     FM231600 16005KT P6SM BKN003
     FM231730 20005KT P6SM FEW004
     FM231900 20010KT P6SM SKC
     FM240500 19006KT 4SM BR OVC008
     FM240800 VRB03KT 2SM BR OVC003=

USA.gov is the U.S. government's official web portal to all federal, state and local government web resources and services.